Regional Weather Roundup
Issued by NWS Albany, NY

Home | Current Version | Previous Version | Text Only | Print | Product List | Glossary On
Versions: 1 2 3 4 5 6 7 8 9 10 11 12 13 14 15 16 17 18 19 20 21 22 23 24 25
000
ASUS41 KALY 182110
RWRALY

NEW YORK STATE HOURLY WEATHER ROUNDUP
NATIONAL WEATHER SERVICE ALBANY NY
500 PM EDT WED APR 18 2018

NOTE: "FAIR" INDICATES FEW OR NO CLOUDS BELOW 12,000 FEET WITH NO
SIGNIFICANT WEATHER AND/OR NO OBSTRUCTIONS TO VISIBILITY.

NYZ032-033-038>043-046>054-057>066-NYZ062>081-082-084-182200-
EAST


CITY           SKY/WX    TMP DP  RH WIND       PRES   REMARKS
ALBANY         CLOUDY    45  29  53 NW17G23   29.75F
GLENS FALLS    PTSUNNY   43  28  55 W12G23    29.72R
POUGHKEEPSIE   CLOUDY    49  28  44 SW9       29.76R
NEWBURGH       MOSUNNY   50  30  46 W12G23    29.77R
MONTGOMERY     CLOUDY    49  28  44 NW10G18   29.77R
WHITE PLAINS   FAIR      50  26  39 W8        29.76R
ISLIP          FAIR      52  31  44 SW14      29.76S
NEW YORK CITY  FAIR      54  26  34 W10       29.77S
CENTRAL PARK   FAIR      53  27  36 W8G16     29.80R
$$

NYZ005>009-017-018-044>046-055-056-182200-
CENTRAL


CITY           SKY/WX    TMP DP  RH WIND       PRES   REMARKS
FULTON           N/A    N/A N/A N/A MISG      29.79S
SYRACUSE       CLOUDY    39  32  76 NW10      29.79R WCI  32
ROME           CLOUDY    40  29  64 W14       29.78S WCI  32
ELMIRA         CLOUDY    42  29  59 W13       29.80S
BINGHAMTON     CLOUDY    38  26  62 W9        29.76R WCI  31
MONTICELLO     CLOUDY    40  27  59 W10G17    29.77R WCI  33
$$

NYZ026>034-041>043-087-182200-
NORTH


CITY           SKY/WX    TMP DP  RH WIND       PRES   REMARKS
WATERTOWN      CLOUDY    39  34  82 SW14G25   29.75S WCI  31
FORT DRUM      NOT AVBL
OGDENSBURG     LGT RAIN  43  33  68 W8        29.68F
MASSENA        CLOUDY    44  35  70 SW14G24   29.68S
SARANAC LAKE   CLOUDY    34  31  88 SW10G21   29.64S WCI  26
PLATTSBURGH    CLOUDY    45  31  58 W10G17    29.65S
$$

NYZ001>004-010>016-019>021-085-182200-
WEST


CITY           SKY/WX    TMP DP  RH WIND       PRES   REMARKS
NIAGARA FALLS  CLOUDY    38  28  67 SW14      29.83S WCI  30
BUFFALO        CLOUDY    35  27  72 SW14      29.83S WCI  26
DUNKIRK        CLOUDY    35  26  69 W9        29.86S WCI  28
JAMESTOWN      CLOUDY    34  27  75 W5        29.81S WCI  30
WELLSVILLE     CLOUDY    35  27  72 MISG      29.79S
ROCHESTER      CLOUDY    39  29  67 W17       29.82R WCI  30
PENN YAN       CLOUDY    41  25  53 W9        29.80R
$$

             KEY
       WCI = WIND CHILL INDEX
       VSB = VISIBILITY
       HX  = HEAT INDEX
$$




USA.gov is the U.S. government's official web portal to all federal, state and local government web resources and services.